User: anonymous   Login
Location: Anare
(10.6236°N, 66.6506°W)
Time: 03:44:26
(UTC+00:00)
Language:

Delta 7925 Rocket - Orbit

View from above orbital plane
View from above orbital plane
View from above satellite
View from above satellite

Ground track
Ground track

The orbit data is extracted from the following two-line orbital elements,

1 24809U 97025B   24164.41659239  .00000264  00000-0  77159-4 0  9997
2 24809  26.2981  57.4991 0664161 217.6518 137.5656 13.30551478316046
Epoch (UTC): 12 June 2024 09:59:53
Eccentricity: 0.0664161
inclination: 26.2981°
perigee height: 645 km
apogee height: 1644 km
right ascension of ascending node: 57.4991°
argument of perigee: 217.6518°
revolutions per day: 13.30551478
mean anomaly at epoch: 137.5656°
orbit number at epoch: 31604

The dashed part of the orbit path shows where the satellite is in the earth's shadow,  

DLR